CW8504 Weather Reports


time (UTC)temp
F
wind
direction
speed
knots
gust
knots
rain 1hr
in
rain 24hr
in
rain mn
in
humidity
%
barometer
mb
20260831232404 81 228 1.7 4.3 0.00 0.00 0.00 11 1018.1
20260831231904 81 214 0.9 7.0 0.00 0.00 0.00 13 1018.0
20260831231404 81 219 0.9 2.6 0.00 0.00 0.00 13 1018.0
20260831230904 81 231 2.6 2.6 0.00 0.00 0.00 12 1018.1
20260831230404 81 224 2.6 5.2 0.00 0.00 0.00 13 1018.1
20260831225904 80 228 3.5 6.1 0.00 0.00 0.00 12 1018.2
20260831225404 80 213 1.7 4.3 0.00 0.00 0.00 12 1018.2
20260831224904 80 221 1.7 4.3 0.00 0.00 0.00 13 1018.3
20260831224404 80 226 4.3 7.0 0.00 0.00 0.00 12 1018.3
20260831223904 80 230 2.6 6.1 0.00 0.00 0.00 12 1018.3
20260831223404 79 227 0.0 2.6 0.00 0.00 0.00 13 1018.2
20260831222904 79 159 0.0 2.6 0.00 0.00 0.00 11 1018.3
20260831222404 79 153 0.9 4.3 0.00 0.00 0.00 12 1018.4
20260831221904 79 134 1.7 2.6 0.00 0.00 0.00 12 1018.4
20260831221404 80 234 0.9 4.3 0.00 0.00 0.00 10 1018.4
20260831220904 79 283 0.9 4.3 0.00 0.00 0.00 11 1018.4
20260831220404 79 92 1.7 5.2 0.00 0.00 0.00 11 1018.5
20260831215904 80 238 0.9 4.3 0.00 0.00 0.00 10 1018.6
20260831215404 80 233 0.9 4.3 0.00 0.00 0.00 10 1018.7
20260831214904 80 220 0.9 5.2 0.00 0.00 0.00 10 1018.6
20260831213904 80 210 0.0 2.6 0.00 0.00 0.00 11 1018.7
20260831213404 80 226 4.3 7.8 0.00 0.00 0.00 12 1018.7
20260831212904 80 223 0.9 6.1 0.00 0.00 0.00 10 1018.7
20260831212404 80 228 2.6 7.0 0.00 0.00 0.00 11 1018.8
20260831211904 80 220 0.9 4.3 0.00 0.00 0.00 9 1018.8
20260831210904 80 228 1.7 5.2 0.00 0.00 0.00 10 1019.0
20260831210404 80 240 2.6 8.7 0.00 0.00 0.00 9 1019.1
20260831205904 80 228 3.5 8.7 0.00 0.00 0.00 11 1019.2
20260831204904 80 235 2.6 8.7 0.00 0.00 0.00 10 1019.3
20260831204404 79 221 3.5 6.1 0.00 0.00 0.00 10 1019.3
20260831203904 79 222 2.6 5.2 0.00 0.00 0.00 11 1019.4
20260831202904 78 225 0.0 4.3 0.00 0.00 0.00 11 1019.5
20260831202404 78 225 0.9 7.8 0.00 0.00 0.00 12 1019.7
20260831201904 77 38 0.0 1.7 0.00 0.00 0.00 10 1019.7
20260831201404 77 37 1.7 4.3 0.00 0.00 0.00 11 1019.8
20260831200904 77 51 0.9 2.6 0.00 0.00 0.00 14 1019.8
20260831195904 76 37 0.9 2.6 0.00 0.00 0.00 11 1019.9
20260831195404 76 40 0.9 2.6 0.00 0.00 0.00 12 1019.9
20260831194904 76 115 0.9 5.2 0.00 0.00 0.00 14 1020.0
20260831194404 76 34 1.7 7.0 0.00 0.00 0.00 12 1020.2
20260831193904 76 22 0.9 1.7 0.00 0.00 0.00 12 1020.2
20260831193404 76 145 0.9 2.6 0.00 0.00 0.00 15 1020.2
20260831192404 75 119 1.7 5.2 0.00 0.00 0.00 15 1020.4
20260831191904 75 40 0.0 5.2 0.00 0.00 0.00 16 1020.5
20260831191404 74 30 0.9 4.3 0.00 0.00 0.00 14 1020.6
20260831190904 74 38 0.0 2.6 0.00 0.00 0.00 15 1020.7
20260831185904 73 39 0.0 1.7 0.00 0.00 0.00 15 1020.9
20260831185404 73 39 0.9 2.6 0.00 0.00 0.00 15 1020.9
20260831184904 73 38 0.9 2.6 0.00 0.00 0.00 17 1021.0
20260831184404 73 37 0.9 2.6 0.00 0.00 0.00 16 1021.0
20260831183904 72 35 0.0 5.2 0.00 0.00 0.00 15 1021.1
20260831183404 72 34 0.9 4.3 0.00 0.00 0.00 17 1021.3
20260831182904 72 31 0.0 1.7 0.00 0.00 0.00 16 1021.4
20260831182404 71 31 0.9 1.7 0.00 0.00 0.00 17 1021.4
20260831181404 71 31 0.0 1.7 0.00 0.00 0.00 18 1021.5
20260831180404 70 31 0.9 4.3 0.00 0.00 0.00 16 1021.7
20260831175904 69 31 0.9 2.6 0.00 0.00 0.00 18 1021.7
20260831175404 68 30 0.9 4.3 0.00 0.00 0.00 20 1021.7
20260831174904 67 31 0.9 2.6 0.00 0.00 0.00 22 1021.8
20260831174404 66 28 0.0 0.9 0.00 0.00 0.00 28 1021.8
20260831173404 64 340 0.0 1.7 0.00 0.00 0.00 30 1021.9
20260831172904 64 355 0.9 1.7 0.00 0.00 0.00 27 1022.0
20260831172404 63 284 0.0 0.0 0.00 0.00 0.00 29 1022.1
20260831171905 63 300 0.0 0.0 0.00 0.00 0.00 28 1022.2
20260831171404 62 300 0.0 0.0 0.00 0.00 0.00 31 1022.2
20260831170404 61 299 0.0 0.0 0.00 0.00 0.00 32 1022.2
20260831165904 60 299 0.0 0.0 0.00 0.00 0.00 34 1022.3
20260831165404 59 299 0.0 0.0 0.00 0.00 0.00 34 1022.3
20260831164903 59 299 0.0 0.0 0.00 0.00 0.00 34 1022.4
20260831164404 58 299 0.0 0.0 0.00 0.00 0.00 36 1022.5
20260831163904 57 299 0.0 0.0 0.00 0.00 0.00 39 1022.6
20260831162904 56 349 0.0 0.0 0.00 0.00 0.00 42 1022.7
20260831162404 55 349 0.0 0.0 0.00 0.00 0.00 41 1022.8
20260831161904 54 350 0.0 0.0 0.00 0.00 0.00 43 1022.7
20260831161404 54 5 0.0 0.0 0.00 0.00 0.00 45 1022.7
20260831160904 53 5 0.0 0.0 0.00 0.00 0.00 45 1022.8
20260831160404 52 358 0.0 0.0 0.00 0.00 0.00 46 1022.9
20260831155404 51 264 0.0 0.0 0.00 0.00 0.00 49 1022.9
20260831153904 48 192 0.0 0.0 0.00 0.00 0.00 55 1022.9
20260831153404 46 207 0.0 0.0 0.00 0.00 0.00 60 1022.9
20260831152904 45 207 0.0 0.0 0.00 0.00 0.00 64 1023.0
20260831152404 44 207 0.0 0.0 0.00 0.00 0.00 64 1023.0
20260831151904 43 207 0.0 0.0 0.00 0.00 0.00 67 1023.0
20260831151404 42 207 0.0 0.0 0.00 0.00 0.00 71 1023.1
20260831150904 41 207 0.0 0.0 0.00 0.00 0.00 71 1023.1
20260831150404 40 207 0.0 0.0 0.00 0.00 0.00 73 1023.2
20260831145904 39 207 0.0 0.0 0.00 0.00 0.00 74 1023.2
20260831145404 38 207 0.0 0.0 0.00 0.00 0.00 74 1023.2
20260831144404 37 207 0.0 0.0 0.00 0.00 0.00 75 1023.1
20260831143904 36 207 0.0 0.0 0.00 0.00 0.00 75 1023.2
20260831143404 36 207 0.0 0.0 0.00 0.00 0.00 75 1023.3
20260831142904 35 207 0.0 0.0 0.00 0.00 0.00 75 1023.3
20260831142404 35 207 0.0 0.0 0.00 0.00 0.00 75 1023.3
20260831141404 34 207 0.0 0.0 0.00 0.00 0.00 75 1023.2
20260831140904 34 207 0.0 0.0 0.00 0.00 0.00 75 1023.2
20260831140404 33 207 0.0 0.0 0.00 0.00 0.00 74 1023.2
20260831135904 33 207 0.0 0.0 0.00 0.00 0.00 74 1023.2
20260831135404 33 207 0.0 0.0 0.00 0.00 0.00 74 1023.2
20260831134904 32 207 0.0 0.0 0.00 0.00 0.00 74 1023.2
20260831133904 32 207 0.0 0.0 0.00 0.00 0.00 73 1023.1
20260831133404 32 207 0.0 0.0 0.00 0.00 0.00 73 1023.0
20260831132904 32 208 0.0 0.0 0.00 0.00 0.00 73 1022.9
20260831132404 32 233 0.0 0.0 0.00 0.00 0.00 73 1022.9
20260831131904 32 233 0.0 0.0 0.00 0.00 0.00 72 1022.9
20260831131404 32 233 0.0 0.0 0.00 0.00 0.00 72 1022.8
20260831130904 32 233 0.0 0.0 0.00 0.00 0.00 72 1022.8
20260831130404 32 233 0.0 0.0 0.00 0.00 0.00 72 1022.8
20260831125904 32 233 0.0 0.0 0.00 0.00 0.00 72 1022.7
20260831125404 32 233 0.0 0.0 0.00 0.00 0.00 72 1022.6
20260831124904 32 233 0.0 0.0 0.00 0.00 0.00 72 1022.6
20260831124404 32 233 0.0 0.0 0.00 0.00 0.00 72 1022.6
20260831123904 33 233 0.0 0.0 0.00 0.00 0.00 71 1022.6
20260831123404 33 233 0.0 0.0 0.00 0.00 0.00 71 1022.6
20260831122404 33 233 0.0 0.0 0.00 0.00 0.00 71 1022.5
20260831121904 33 233 0.0 0.0 0.00 0.00 0.00 71 1022.5
20260831121405 33 233 0.0 0.0 0.00 0.00 0.00 71 1022.5
20260831120904 33 233 0.0 0.0 0.00 0.00 0.00 71 1022.4
20260831120404 33 233 0.0 0.0 0.00 0.00 0.00 71 1022.4
20260831115904 33 233 0.0 0.0 0.00 0.00 0.00 71 1022.4
20260831115404 33 233 0.0 0.0 0.00 0.00 0.00 71 1022.4
20260831114904 33 233 0.0 0.0 0.00 0.00 0.00 70 1022.4
20260831114404 33 233 0.0 0.0 0.00 0.00 0.00 70 1022.4
20260831113904 34 233 0.0 0.0 0.00 0.00 0.00 70 1022.3
20260831112904 34 233 0.0 0.0 0.00 0.00 0.00 70 1022.3
20260831112404 34 233 0.0 0.0 0.00 0.00 0.00 70 1022.2
20260831111904 34 233 0.0 0.0 0.00 0.00 0.00 70 1022.2
20260831111404 34 233 0.0 0.0 0.00 0.00 0.00 70 1022.1
20260831110904 34 233 0.0 0.0 0.00 0.00 0.00 70 1022.1
20260831110404 34 233 0.0 0.0 0.00 0.00 0.00 69 1022.1
20260831105904 34 233 0.0 0.0 0.00 0.00 0.00 69 1022.1
20260831105404 34 233 0.0 0.0 0.00 0.00 0.00 69 1022.0
20260831104904 34 233 0.0 0.0 0.00 0.00 0.00 69 1022.0
20260831102904 35 233 0.0 0.0 0.00 0.00 0.00 69 1022.0
20260831102404 35 233 0.0 0.0 0.00 0.00 0.00 69 1022.0
20260831101905 35 233 0.0 0.0 0.00 0.00 0.00 68 1022.0
20260831101404 35 233 0.0 0.0 0.00 0.00 0.00 68 1022.0
20260831100904 35 233 0.0 0.0 0.00 0.00 0.00 68 1022.0
20260831100404 35 233 0.0 0.0 0.00 0.00 0.00 68 1021.9
20260831095904 35 233 0.0 0.0 0.00 0.00 0.00 68 1022.0
20260831095404 35 233 0.0 0.0 0.00 0.00 0.00 68 1021.9
20260831094404 35 233 0.0 0.0 0.00 0.00 0.00 68 1021.9
20260831093904 35 233 0.0 0.0 0.00 0.00 0.00 68 1021.9
20260831093406 35 233 0.0 0.0 0.00 0.00 0.00 68 1021.9
20260831092404 36 233 0.0 0.0 0.00 0.00 0.00 67 1021.9
20260831091404 36 233 0.0 0.0 0.00 0.00 0.00 67 1021.8
20260831090904 36 233 0.0 0.0 0.00 0.00 0.00 67 1021.8
20260831090404 36 233 0.0 0.0 0.00 0.00 0.00 67 1022.0
20260831085404 37 233 0.0 0.0 0.00 0.00 0.00 67 1021.9
20260831084904 37 233 0.0 0.0 0.00 0.00 0.00 67 1021.9
20260831084404 37 233 0.0 0.0 0.00 0.00 0.00 67 1021.9
20260831083404 37 233 0.0 0.0 0.00 0.00 0.00 66 1021.9
20260831082904 37 233 0.0 0.0 0.00 0.00 0.00 66 1021.9
20260831082404 37 233 0.0 0.0 0.00 0.00 0.00 66 1021.9
20260831081904 37 233 0.0 0.0 0.00 0.00 0.00 66 1021.8
20260831080904 38 233 0.0 0.0 0.00 0.00 0.00 65 1021.9
20260831080404 38 233 0.0 0.0 0.00 0.00 0.00 65 1021.8
20260831075404 38 233 0.0 0.0 0.00 0.00 0.00 65 1021.8
20260831074904 38 233 0.0 0.0 0.00 0.00 0.00 65 1021.8
20260831074404 38 233 0.0 0.0 0.00 0.00 0.00 64 1021.8
20260831073904 39 233 0.0 0.0 0.00 0.00 0.00 64 1021.9
20260831073404 39 233 0.0 0.0 0.00 0.00 0.00 64 1021.9
20260831072904 39 233 0.0 0.0 0.00 0.00 0.00 64 1021.8
20260831071404 39 233 0.0 0.0 0.00 0.00 0.00 62 1021.8
20260831070404 40 233 0.0 0.0 0.00 0.00 0.00 62 1021.6
20260831065904 40 233 0.0 0.0 0.00 0.00 0.00 62 1021.6
20260831064904 40 233 0.0 0.0 0.00 0.00 0.00 61 1021.5
20260831063904 41 233 0.0 0.0 0.00 0.00 0.00 61 1021.5
20260831063404 41 233 0.0 0.0 0.00 0.00 0.00 61 1021.4
20260831062904 41 233 0.0 0.0 0.00 0.00 0.00 61 1021.4
20260831061904 41 233 0.0 0.0 0.00 0.00 0.00 60 1021.3
20260831061404 41 233 0.0 0.0 0.00 0.00 0.00 60 1021.3
20260831060904 41 233 0.0 0.0 0.00 0.00 0.00 60 1021.3
20260831060404 41 233 0.0 0.0 0.00 0.00 0.00 59 1021.3
20260831055904 42 233 0.0 0.0 0.00 0.00 0.00 59 1021.3
20260831054904 42 233 0.0 0.0 0.00 0.00 0.00 59 1021.2
20260831054404 42 233 0.0 0.0 0.00 0.00 0.00 58 1021.2
20260831053404 43 233 0.0 0.0 0.00 0.00 0.00 58 1021.1
20260831052904 43 233 0.0 0.0 0.00 0.00 0.00 58 1021.1
20260831052404 43 233 0.0 0.0 0.00 0.00 0.00 58 1021.2
20260831051904 44 233 0.0 0.0 0.00 0.00 0.00 58 1021.0
20260831050904 44 233 0.0 0.0 0.00 0.00 0.00 57 1021.1
20260831050404 44 233 0.0 0.0 0.00 0.00 0.00 57 1021.0
20260831045904 45 233 0.0 0.0 0.00 0.00 0.00 57 1020.9
20260831045404 45 233 0.0 0.0 0.00 0.00 0.00 56 1020.9
20260831044904 45 233 0.0 0.0 0.00 0.00 0.00 56 1020.9
20260831044404 45 233 0.0 0.0 0.00 0.00 0.00 55 1020.9
20260831043904 45 233 0.0 0.0 0.00 0.00 0.00 53 1020.8
20260831042405 46 234 0.0 0.0 0.00 0.00 0.00 54 1020.7
20260831041904 46 234 0.0 0.0 0.00 0.00 0.00 54 1020.7
20260831041404 47 234 0.0 0.0 0.00 0.00 0.00 53 1020.7
20260831040906 47 234 0.0 0.0 0.00 0.00 0.00 53 1020.6
20260831040404 47 234 0.0 0.0 0.00 0.00 0.00 53 1020.5
20260831035904 48 234 0.0 0.0 0.00 0.00 0.00 52 1020.4
20260831035404 48 234 0.0 0.0 0.00 0.00 0.00 51 1020.4
20260831034404 49 234 0.0 0.0 0.00 0.00 0.00 49 1020.4
20260831033904 49 234 0.0 0.0 0.00 0.00 0.00 49 1020.3
20260831033404 50 234 0.0 0.0 0.00 0.00 0.00 48 1020.3
20260831032904 50 234 0.0 0.0 0.00 0.00 0.00 47 1020.3
20260831032404 50 234 0.0 0.0 0.00 0.00 0.00 48 1020.1
20260831031904 51 234 0.0 0.0 0.00 0.00 0.00 47 1020.0
20260831031404 52 234 0.0 0.0 0.00 0.01 0.00 47 1020.0
20260831030904 52 234 0.0 0.0 0.00 0.01 0.00 45 1020.0
20260831030404 52 234 0.0 0.0 0.00 0.01 0.00 44 1019.9
20260831025904 53 234 0.0 0.0 0.00 0.01 0.00 44 1019.8
20260831024904 55 234 0.0 0.0 0.00 0.01 0.00 42 1019.7
20260831024404 56 234 0.0 0.0 0.00 0.01 0.00 39 1019.7
20260831023904 56 234 0.0 0.0 0.00 0.01 0.00 40 1019.6
20260831023404 57 234 0.0 0.0 0.00 0.01 0.00 37 1019.5
20260831022904 58 234 0.0 0.0 0.00 0.01 0.00 36 1019.5
20260831021904 59 234 0.0 0.0 0.00 0.01 0.00 31 1019.3
20260831021404 60 234 0.0 0.0 0.00 0.01 0.00 33 1019.1
20260831020904 61 234 0.0 0.0 0.00 0.01 0.00 30 1019.0
20260831020404 61 234 0.0 0.0 0.00 0.01 0.00 29 1018.9
20260831015904 62 234 0.0 0.0 0.00 0.01 0.00 27 1018.9
20260831015404 63 234 0.0 0.0 0.00 0.01 0.00 24 1018.9
20260831014904 64 234 0.0 0.0 0.00 0.02 0.00 26 1018.8
20260831013404 65 234 0.0 0.0 0.00 0.02 0.00 17 1018.6
20260831012904 66 234 0.0 0.0 0.00 0.02 0.00 17 1018.7
20260831012404 66 234 0.0 2.6 0.00 0.02 0.00 15 1018.8
20260831011904 67 239 0.0 0.0 0.00 0.02 0.00 12 1018.8
20260831011404 67 239 0.0 0.0 0.00 0.02 0.00 12 1018.7
20260831010904 68 239 0.0 0.0 0.00 0.02 0.00 11 1018.7
20260831010404 68 238 0.0 0.0 0.00 0.02 0.00 10 1018.7
20260831005904 68 214 0.0 0.0 0.00 0.02 0.00 8 1018.7
20260831005404 68 213 1.7 5.2 0.00 0.02 0.00 10 1018.7
20260831004904 69 229 2.6 7.8 0.00 0.02 0.00 10 1018.6
20260831004404 69 224 2.6 10.4 0.00 0.02 0.00 9 1018.6
20260831003404 70 209 0.0 2.6 0.00 0.02 0.00 8 1018.5
20260831002904 70 223 0.0 10.4 0.00 0.02 0.00 8 1018.6
20260831002404 70 201 1.7 15.6 0.00 0.02 0.00 9 1018.5
20260831001404 71 221 0.0 1.7 0.00 0.02 0.00 8 1018.7
20260831000904 71 224 0.0 8.7 0.00 0.02 0.00 8 1018.8
20260831000404 72 208 0.9 8.7 0.00 0.02 0.00 8 1018.6
20260830235904 72 223 0.9 8.7 0.00 0.02 0.00 9 1018.7
20260830235404 72 226 0.0 7.0 0.00 0.02 0.00 10 1018.6
20260830234904 72 204 1.7 7.8 0.00 0.02 0.00 8 1018.6
20260830234404 72 239 0.9 7.0 0.00 0.02 0.00 9 1018.6
20260830233904 73 217 1.7 8.7 0.00 0.02 0.00 7 1018.6
20260830233404 73 222 0.9 4.3 0.00 0.02 0.00 8 1018.6
20260830232904 72 225 0.9 7.8 0.00 0.02 0.00 10 1018.5